Regional Weather Roundup
Issued by NWS Charleston, SC

Current Version | Previous Version | Graphics & Text | Print | Product List | Glossary On
Versions: 1 2 3 4 5 6 7 8 9 10 11 12 13 14 15 16 17 18 19 20 21 22 23 24 25 26 27 28 29 30 31 32 33 34 35 36 37 38 39 40 41 42 43 44 45 46 47 48 49 50
000 ASUS42 KCHS 252028 RWRCHS REGIONAL WEATHER ROUNDUP NATIONAL WEATHER SERVICE CHARLESTON SC 400 PM EDT MON JUL 25 2016 NOTE: "FAIR" INDICATES FEW OR NO CLOUDS BELOW 12,000 FEET WITH NO SIGNIFICANT WEATHER AND/OR OBSTRUCTIONS TO VISIBILITY. NOT ALL STATIONS ARE QUALITY CONTROLLED. USE DATA WITH CAUTION... ESPECIALLY DEWPOINT OBSERVATIONS. SCZ027-030-031-034>040-042>050-252100- ...SOUTHEAST SOUTH CAROLINA... CITY SKY/WX TMP DP RH WIND PRES REMARKS N CHARLESTON MOSUNNY 92 71 50 S15 30.03F HX 98 WATERFRONT PRK N/A 87 75 67 S12 30.03F HX 96 MOUNT PLEASANT FAIR 90 73 58 S12 30.04F HX 98 JOHNS ISLAND FAIR 90 75 62 S13G18 30.04F HX 100 PINOPOLIS N/A 91 75 59 S5 29.94F HX 102 MONCKS CORNER FAIR 90 68 48 S10G16 30.02S HAZE HX 93 SUMMERVILLE NOT AVBL BEAUFORT MCAS MOSUNNY 91 74 57 SE6 30.03F HX 100 BEAUFORT ARPT FAIR 88 73 62 SW9G17 30.03F HX 96 HILTON HEAD IS MOSUNNY 95 75 52 S14 30.05F HX 107 WALTERBORO PTCLDY 93 70 46 S10 30.02F HX 99 ALLENDALE FAIR 95 66 38 S12 29.99F HX 98 ...SOUTHERN MIDLANDS AND PEE DEE... CITY SKY/WX TMP DP RH WIND PRES REMARKS GEORGETOWN FAIR 90 70 51 S9 30.04F HX 95 KINGSTREE FAIR 95 68 41 SW8 30.00F HX 99 ORANGEBURG MOSUNNY 96 69 41 S13G20 30.01F HX 102 BARNWELL NOT AVBL AIKEN FAIR 90 70 51 SE8 30.03F HX 95 MANNING FAIR 91 70 49 SW7 30.00F HX 97 COLUMBIA MOSUNNY 98 70 40 S13 29.98F HX 105 SUMTER SUNNY 95 72 47 SE13 29.98F HX 102 FLORENCE SUNNY 94 70 45 S10 30.01F HX 100 MYRTLE BEACH MOSUNNY 90 70 51 S17G23 30.04F HX 95 N MYRTLE BEACH SUNNY 87 76 69 S17G23 30.03F HX 97 $$ GAZ063-065-086>088-099>101-113>116-118-119-134>141-150-252100- ...SOUTHEAST GEORGIA... CITY SKY/WX TMP DP RH WIND PRES REMARKS SAVANNAH ARPT MOSUNNY 93 65 39 S10 30.03F HX 95 HUNTER AAF SUNNY 90 75 60 SE9 30.02F HX 100 FORT STEWART SUNNY 93 69 44 SE8 29.99F HX 98 STATESBORO MOSUNNY 95 71 46 S6 30.01F HX 102 SYLVANIA NOT AVBL CLAXTON MOCLDY 94 71 47 SE7 30.01S HX 101 ...CSRA...CENTRAL AND FAR SOUTHEAST GEORGIA... CITY SKY/WX TMP DP RH WIND PRES REMARKS THOMSON NOT AVBL AUGUSTA-BUSH MOSUNNY 94 70 45 SE9 29.98F HX 100 AUGUSTA-DANIEL SUNNY 97 70 41 S12 30.00F HX 103 SWAINSBORO FAIR 95 68 41 SE9 30.01S HX 99 VIDALIA SUNNY 97 63 32 S5 30.00F HX 98 EASTMAN FAIR 94 55 27 W7 30.02F HX 92 HAZLEHURST FAIR 94 67 41 S8 29.99F HX 98 ALMA MOSUNNY 94 67 41 MISG 30.01F HX 97 WAYCROSS SUNNY 98 70 39 SE8 30.01F HX 104 JESUP FAIR 97 73 46 S6 30.01F HX 107 BAXLEY FAIR 95 73 49 SE7 30.01S HX 105 BRUNSWICK SUNNY 90 73 58 SE12G18 30.04F HX 98 SAINT SIMONS SUNNY 91 72 53 SE13G21 30.04F HX 98 $$ SCZ027-028-034-036>038-045-046-048>050-GAZ119-141-252100- ...LAKE AND SUPPLEMENTAL COASTAL OBSERVATIONS... STATION/POSITION TIME TEMP WIND PRES WAVE SWELL AIR SEA DIR/SP/G HT/PER HT/PER/DIR (UTC) (F) (DEG/KT/KT) (MB) (FT/S) (FT/S/D) WINYAH BAY 1900 88 190/ 10 1017.0 LAKE MURRAY 2000 92 210/ 9/ 11 1014.6F ACE BASIN NERRS 1900 89 170/ 1 1018.0S FORT PULASKI 2000 88 87 160/ 6/ 11 1017.8F SAPELO ISLAND 2000 91 170/ 12 1017.0F $$ ANZ835-935-AMZ111-154-330-350-352-354-370-450-454-472-252100- ...C-MAN AND BUOY OBSERVATIONS... STATION/POSITION TIME TEMP WIND PRES WAVE SWELL AIR SEA DIR/SP/G HT/PER HT/PER/DIR (UTC) (F) (DEG/KT/KT) (MB) (FT/S) (FT/S/D) BUOY 41004 1950 85 87 190/ 8/ 10 1017.4F 2/ 8 2/130/ 8 BUOY 41008 1950 84 88 160/ 8/ 10 1017.6 1/ 9 2/120/ 9 FOLLY BEACH CMAN 2000 86 190/ 12/ 14 1017.6F CAPERS NEARSHORE 2008 85 85 200/ 14/ 17 1017.3F FRIPP NEARSHORE 2008 85 88 190/ 10/ 14 1016.8F STATION/POSITION TIME TEMP WIND PRES WAVE SWELL AIR SEA DIR/SP/G HT/PER HT/PER/DIR (UTC) (F) (DEG/KT/KT) (MB) (FT/S) (FT/S/D) 5E ST. MARYS GA 2001 86 N/A 2/ 9 FRYING PAN BUOY 2000 85 86 200/ 10/ 14 1017.0F BUOY 41025 1950 85 86 220/ 16/ 19 1016.3 2/ 4 2/130/ 8 CAPE LOOKOUT NC 2000 87 220/ 11/ 15 1016.4F BUOY 41002 1950 83 85 180/ 8/ 10 1019.3F 2/ 8 2/110/ 8 BUOY 41010 1920 85 88 140/ 4/ 6 1018.6F ST AUGUSTINE FL 2000 83 87 120/ 14/ 16 1018.2F $$

USA.gov is the U.S. government's official web portal to all federal, state and local government web resources and services.